Weather in Lopanka

Russia / Rostov Oblast     46°23′58″N   40°58′30″E
temp.,
°C
wind,
m/s
gust,
m/s
humid.,
%
clouds,
%
prec.,
mm/h
press.,
hPa
HPBL,
m
28 february, sun
sun2800:00+3wnw3796100 1.2 1015209
03:00+3nw3598100 1.5 1015164
06:00+2nw2296100 0.8 101659
09:00+2n3588100 0.9 1017314
12:00+3n348665 0.0 1017473
15:00+4nw347882 0.1 1017664
18:00+3wnw238199 0.1 101892
21:00+2nw359399 0.2 1020272
1 march, mon
mon100:00+1nw239598 0.0 1021203
03:00+1wnw239497 0.0 1022149
06:00+1w239799 0.0 1023176
09:00+1w348499 0.1 1025475
12:00+3w348098 0.1 1026565
15:00+3wnw348098 0.5 1026607
18:00+2nw238199 0.2 102773
21:00+1wsw229083 0.2 102828
2 march, tue
tue200:000w229120 0.0 102829
03:000w239253 0.0 102899
06:00−1wsw358813 0.0 1027140
09:00+1wsw587723 0.0 1027538
12:00+4w8116267 0.0 10251238
15:00+5w9136175 0.0 10221287
18:00+2w91569100 0.0 10201005
21:00+1wsw101779100 0.0 1020808
3 march, wed
wed300:00+1w101795100 0.4 1018835
03:00+2wnw71297100 3.7 1018620
06:00+2wnw51091100 0.3 1018551
09:00+2wnw7107368 0.3 10201045
12:00+4wnw796642 0.0 10201133
15:00+5wnw8106458 0.1 10201446
18:00+3nw5107393 0.6 1021551
21:000nw497559 0.6 1024324
4 march, thu
thu400:000wnw37800 0.0 1026193
03:00−1wnw35810 0.0 1026140
06:00−1wnw24800 0.0 102797
09:00+2w34650 0.0 1028377
12:00+5wsw44480 0.0 1027807
15:00+6wsw45480 0.0 10261059
18:00+3sw34620 0.0 102449
21:00+1ssw34670 0.0 102469